When you browse on this site, cookies collect data to enhance your experience and personalize the content and advertising you see.
Visit our Privacy Policy to learn more. By continuing to use the site, you agree to this use of cookies and data.

Hourly Weather Chiquimula

Today, 4 July, Saturday

Time Temperature Precipitation Wind Pressure Humidity
00:00 +23°C° 0 mm 1 mps 709 mmHg 98%
01:00 +23°C° 0 mm 1 mps 708 mmHg 98%
02:00 +23°C° 0 mm 1 mps 708 mmHg 98%
03:00 +23°C° 0 mm 1 mps 707 mmHg 98%
04:00 +23°C° 0 mm 1 mps 707 mmHg 98%
05:00 +22°C° 0 mm 1 mps 707 mmHg 98%
06:00 +22°C° 0 mm 1 mps 707 mmHg 98%
07:00 +24°C° 0 mm 1 mps 708 mmHg 94%
08:00 +25°C° 0 mm 1 mps 708 mmHg 90%
09:00 +26°C° 0 mm 1 mps 708 mmHg 87%
10:00 +27°C° 0.1 mm 1 mps 708 mmHg 83%
11:00 +28°C° 0.1 mm 1 mps 708 mmHg 79%
12:00 +29°C° 0.1 mm 1 mps 708 mmHg 75%
13:00 +28°C° 0.7 mm 1 mps 707 mmHg 78%
14:00 +28°C° 0.7 mm 2 mps 707 mmHg 82%
15:00 +28°C° 0.7 mm 2 mps 706 mmHg 85%
16:00 +27°C° 1.1 mm 1 mps 706 mmHg 88%
17:00 +26°C° 1.1 mm 1 mps 706 mmHg 91%
18:00 +25°C° 1.1 mm 1 mps 706 mmHg 95%
19:00 +24°C° 0.2 mm 1 mps 707 mmHg 95%
20:00 +24°C° 0.2 mm 1 mps 707 mmHg 96%
21:00 +24°C° 0.2 mm 1 mps 708 mmHg 97%
22:00 +23°C° 0 mm 1 mps 708 mmHg 97%
23:00 +23°C° 0 mm 1 mps 708 mmHg 97%

Tomorrow, 5 July, Sunday

Time Temperature Precipitation Wind Pressure Humidity
00:00 +21°C° 0 mm 0 mps 708 mmHg 98%
01:00 +21°C° 0 mm 0 mps 707 mmHg 98%
02:00 +20°C° 0 mm 0 mps 707 mmHg 98%
03:00 +20°C° 0 mm 0 mps 706 mmHg 97%
04:00 +20°C° 0 mm 0 mps 707 mmHg 98%
05:00 +20°C° 0 mm 0 mps 707 mmHg 98%
06:00 +20°C° 0 mm 0 mps 707 mmHg 98%
07:00 +22°C° 0 mm 0 mps 707 mmHg 93%
08:00 +25°C° 0 mm 1 mps 708 mmHg 89%
09:00 +27°C° 0 mm 1 mps 708 mmHg 84%
10:00 +28°C° 0 mm 1 mps 708 mmHg 80%
11:00 +29°C° 0 mm 1 mps 708 mmHg 75%
12:00 +30°C° 0 mm 1 mps 708 mmHg 71%
13:00 +30°C° 0.1 mm 1 mps 707 mmHg 70%
14:00 +30°C° 0.1 mm 1 mps 707 mmHg 69%
15:00 +31°C° 0.1 mm 1 mps 706 mmHg 68%
16:00 +29°C° 0.7 mm 1 mps 706 mmHg 75%
17:00 +28°C° 0.7 mm 1 mps 706 mmHg 82%
18:00 +27°C° 0.7 mm 1 mps 706 mmHg 89%
19:00 +26°C° 0.5 mm 1 mps 706 mmHg 91%
20:00 +25°C° 0.5 mm 1 mps 707 mmHg 94%
21:00 +23°C° 0.5 mm 1 mps 707 mmHg 96%
22:00 +23°C° 0.3 mm 1 mps 707 mmHg 97%
23:00 +21°C° 0.3 mm 0 mps 707 mmHg 97%

Day after tomorrow, 6 July, Monday

Time Temperature Precipitation Wind Pressure Humidity
00:00 +21°C° 0.3 mm 0 mps 707 mmHg 98%
01:00 +21°C° 0.1 mm 0 mps 707 mmHg 98%
02:00 +21°C° 0.1 mm 0 mps 707 mmHg 98%
03:00 +21°C° 0.1 mm 0 mps 706 mmHg 98%
04:00 +21°C° 0 mm 0 mps 707 mmHg 98%
05:00 +21°C° 0 mm 0 mps 707 mmHg 98%
06:00 +21°C° 0 mm 0 mps 707 mmHg 97%
07:00 +22°C° 0 mm 0 mps 708 mmHg 94%
08:00 +23°C° 0 mm 0 mps 708 mmHg 90%
09:00 +24°C° 0 mm 0 mps 709 mmHg 86%
10:00 +28°C° 0 mm 1 mps 708 mmHg 78%
11:00 +30°C° 0 mm 1 mps 708 mmHg 70%
12:00 +32°C° 0 mm 1 mps 708 mmHg 62%
13:00 +32°C° 0 mm 1 mps 708 mmHg 60%
14:00 +32°C° 0 mm 1 mps 707 mmHg 58%
15:00 +32°C° 0 mm 1 mps 707 mmHg 56%
16:00 +29°C° 0.1 mm 0 mps 707 mmHg 63%
17:00 +27°C° 0.1 mm 0 mps 707 mmHg 70%
18:00 +26°C° 0.1 mm 0 mps 707 mmHg 77%
19:00 +24°C° 0.1 mm 0 mps 707 mmHg 82%
20:00 +25°C° 0.1 mm 1 mps 708 mmHg 87%
21:00 +23°C° 0.1 mm 1 mps 708 mmHg 92%
22:00 +23°C° 0 mm 1 mps 708 mmHg 94%
23:00 +21°C° 0 mm 0 mps 708 mmHg 96%

7 July, Tuesday

Time Temperature Precipitation Wind Pressure Humidity
00:00 +20°C° 0 mm 0 mps 708 mmHg 98%
01:00 +20°C° 0 mm 0 mps 708 mmHg 97%
02:00 +20°C° 0 mm 0 mps 708 mmHg 97%
03:00 +20°C° 0 mm 0 mps 707 mmHg 97%
04:00 +20°C° 0 mm 0 mps 707 mmHg 97%
05:00 +20°C° 0 mm 0 mps 707 mmHg 96%
06:00 +20°C° 0 mm 0 mps 708 mmHg 96%
07:00 +24°C° 0 mm 1 mps 708 mmHg 92%
08:00 +25°C° 0 mm 1 mps 709 mmHg 88%
09:00 +26°C° 0 mm 1 mps 709 mmHg 84%
10:00 +28°C° 0 mm 1 mps 709 mmHg 78%
11:00 +29°C° 0 mm 1 mps 709 mmHg 72%
12:00 +31°C° 0 mm 1 mps 709 mmHg 66%
13:00 +31°C° 0.1 mm 1 mps 708 mmHg 64%
14:00 +31°C° 0.1 mm 1 mps 708 mmHg 61%
15:00 +32°C° 0.1 mm 1 mps 707 mmHg 59%
16:00 +30°C° 0.5 mm 1 mps 707 mmHg 69%
17:00 +28°C° 0.5 mm 1 mps 707 mmHg 79%
18:00 +26°C° 0.5 mm 1 mps 707 mmHg 89%
19:00 +25°C° 0.2 mm 1 mps 707 mmHg 91%
20:00 +24°C° 0.2 mm 1 mps 708 mmHg 94%
21:00 +23°C° 0.2 mm 1 mps 708 mmHg 97%
22:00 +23°C° 0.2 mm 1 mps 708 mmHg 97%
23:00 +22°C° 0.2 mm 1 mps 708 mmHg 98%

8 July, Wednesday

Time Temperature Precipitation Wind Pressure Humidity
00:00 +20°C° 0.2 mm 0 mps 708 mmHg 98%
01:00 +20°C° 0 mm 0 mps 708 mmHg 98%
02:00 +20°C° 0 mm 0 mps 707 mmHg 98%
03:00 +20°C° 0 mm 0 mps 707 mmHg 97%
04:00 +20°C° 0 mm 0 mps 707 mmHg 97%
05:00 +20°C° 0 mm 0 mps 707 mmHg 97%
06:00 +22°C° 0 mm 1 mps 707 mmHg 97%
07:00 +23°C° 0 mm 1 mps 708 mmHg 93%
08:00 +25°C° 0 mm 1 mps 708 mmHg 89%
09:00 +26°C° 0 mm 1 mps 709 mmHg 84%
10:00 +28°C° 0 mm 1 mps 709 mmHg 78%
11:00 +29°C° 0 mm 1 mps 708 mmHg 73%
12:00 +30°C° 0 mm 2 mps 708 mmHg 67%
13:00 +31°C° 0.3 mm 2 mps 708 mmHg 66%
14:00 +31°C° 0.3 mm 2 mps 707 mmHg 66%
15:00 +31°C° 0.3 mm 2 mps 706 mmHg 65%
16:00 +30°C° 0.3 mm 2 mps 706 mmHg 72%
17:00 +28°C° 0.3 mm 2 mps 706 mmHg 79%
18:00 +27°C° 0.3 mm 2 mps 706 mmHg 86%
19:00 +26°C° 0.6 mm 1 mps 707 mmHg 90%
20:00 +25°C° 0.6 mm 1 mps 707 mmHg 94%
21:00 +23°C° 0.6 mm 1 mps 708 mmHg 97%
22:00 +23°C° 0.3 mm 1 mps 707 mmHg 98%
23:00 +23°C° 0.3 mm 1 mps 707 mmHg 98%

9 July, Thursday

Time Temperature Precipitation Wind Pressure Humidity
00:00 +23°C° 0.3 mm 1 mps 707 mmHg 98%
01:00 +23°C° 0 mm 1 mps 707 mmHg 98%
02:00 +22°C° 0 mm 1 mps 707 mmHg 98%
03:00 +22°C° 0 mm 1 mps 706 mmHg 97%
04:00 +22°C° 0 mm 1 mps 706 mmHg 97%
05:00 +22°C° 0 mm 1 mps 707 mmHg 97%
06:00 +22°C° 0 mm 1 mps 707 mmHg 97%
07:00 +24°C° 0 mm 1 mps 707 mmHg 92%
08:00 +26°C° 0 mm 1 mps 708 mmHg 87%
09:00 +27°C° 0 mm 1 mps 708 mmHg 82%
10:00 +28°C° 0.1 mm 1 mps 708 mmHg 76%
11:00 +30°C° 0.1 mm 2 mps 708 mmHg 70%
12:00 +31°C° 0.1 mm 2 mps 708 mmHg 64%
13:00 +31°C° 0.1 mm 2 mps 707 mmHg 64%
14:00 +31°C° 0.1 mm 2 mps 707 mmHg 64%
15:00 +31°C° 0.1 mm 3 mps 706 mmHg 63%
16:00 +30°C° 0.1 mm 2 mps 706 mmHg 71%
17:00 +28°C° 0.1 mm 2 mps 706 mmHg 78%
18:00 +27°C° 0.1 mm 2 mps 706 mmHg 85%
19:00 +26°C° 0.1 mm 1 mps 707 mmHg 89%
20:00 +24°C° 0.1 mm 1 mps 707 mmHg 93%
21:00 +23°C° 0.1 mm 1 mps 708 mmHg 97%
22:00 +23°C° 0 mm 1 mps 708 mmHg 97%
23:00 +23°C° 0 mm 1 mps 708 mmHg 98%
Show more